[TLELIST] Archives

 

[TLELIST] Current TLEs

June 16th 2025 PDT

HST 1 20580U 90037B 25166.86804874 .00005049 00000-0 18657-3 0 9997 2 20580 28.4692 53.8560 0002630 76.5975 283.4912 15.25313538732484 ISS (ZARYA) 1 25544U 98067A 25167.44311275 .00010511 00000-0 19030-3 0 9992 2 25544 51.6384 310.7633 0001081 247.7236 212.2756 15.50236701515043 CXO 1 25867U 99040B 25169.43568764 .00000593 00000-0 00000+0 0 9992 2 25867 49.5074 129.6926 8422281 309.4614 0.2281 0.37804295 27109 ...Continue Reading

[TLELIST] Current TLEs

June 15th 2025 PDT

HST 1 20580U 90037B 25165.88661413 .00006123 00000-0 22804-3 0 9991 2 20580 28.4690 60.5082 0002636 66.7759 293.3113 15.25303486732331 ISS (ZARYA) 1 25544U 98067A 25165.90238793 .00012689 00000-0 22830-3 0 9994 2 25544 51.6387 318.3957 0001236 240.3131 255.5410 15.50204707514805 CXO 1 25867U 99040B 25169.43568764 .00000593 00000-0 00000+0 0 9992 2 25867 49.5074 129.6926 8422281 309.4614 0.2281 0.37804295 27109 ...Continue Reading

[TLELIST] Current TLEs

June 14th 2025 PDT

HST 1 20580U 90037B 25165.10146150 .00006889 00000-0 25764-3 0 9999 2 20580 28.4690 65.8299 0002621 59.0755 301.0097 15.25293524732478 ISS (ZARYA) 1 25544U 98067A 25165.16895675 .00012360 00000-0 22275-3 0 9999 2 25544 51.6370 322.0350 0001527 241.5702 118.5133 15.50184758514696 CXO 1 25867U 99040B 25166.79142492 .00000653 00000-0 00000-0 0 9992 2 25867 49.4464 129.8235 8423859 309.4365 0.2039 0.37798605 15937 ...Continue Reading

[TLELIST] [TLELIST] Current TLEs

June 14th 2025 PDT

HST 1 20580U 90037B 25165.10146150 .00006889 00000-0 25764-3 0 9999 2 20580 28.4690 65.8299 0002621 59.0755 301.0097 15.25293524732478 ISS (ZARYA) 1 25544U 98067A 25165.16895675 .00012360 00000-0 22275-3 0 9999 2 25544 51.6370 322.0350 0001527 241.5702 118.5133 15.50184758514696 CXO 1 25867U 99040B 25166.79142492 .00000653 00000-0 00000-0 0 9992 2 25867 49.4464 129.8235 8423859 309.4365 0.2039 0.37798605 15937 ...Continue Reading

[TLELIST] Current TLEs

June 13th 2025 PDT

HST 1 20580U 90037B 25163.92372140 .00005549 00000-0 20605-3 0 9998 2 20580 28.4687 73.8124 0002612 47.1811 312.9003 15.25275985732032 ISS (ZARYA) 1 25544U 98067A 25163.94409331 .00015737 00000-0 28160-3 0 9993 2 25544 51.6370 328.1052 0001550 236.0752 124.0090 15.50158723514509 CXO 1 25867U 99040B 25166.79142492 .00000653 00000-0 00000-0 0 9992 2 25867 49.4464 129.8235 8423859 309.4365 0.2039 0.37798605 15937 ...Continue Reading

[TLELIST] Current TLEs

June 12th 2025 PDT

HST 1 20580U 90037B 25162.87683047 .00004542 00000-0 16727-3 0 9994 2 20580 28.4685 80.9077 0002578 36.3649 323.7121 15.25263214731870 ISS (ZARYA) 1 25544U 98067A 25163.44487209 .00008519 00000-0 15631-3 0 9997 2 25544 51.6380 330.5735 0001404 214.7053 237.6340 15.50140431514427 CXO 1 25867U 99040B 25164.14640100 .00000603 00000-0 00000-0 0 9993 2 25867 49.3981 129.9229 8427513 309.4372 0.0519 0.37799409 15937 ...Continue Reading

[TLELIST] Current TLEs

June 11th 2025 PDT

HST 1 20580U 90037B 25161.89536306 .00004509 00000-0 16604-3 0 9997 2 20580 28.4682 87.5597 0002555 25.8656 334.2066 15.25253996731728 ISS (ZARYA) 1 25544U 98067A 25161.94558248 .00007911 00000-0 14587-3 0 9996 2 25544 51.6366 338.0088 0001616 224.5670 135.5189 15.50112662514190 CXO 1 25867U 99040B 25164.14640100 .00000603 00000-0 00000-0 0 9993 2 25867 49.3981 129.9229 8427513 309.4372 0.0519 0.37799409 15937 ...Continue Reading

[TLELIST] Current TLEs

June 10th 2025 PDT

HST 1 20580U 90037B 25160.91388969 .00004889 00000-0 18075-3 0 9994 2 20580 28.4678 94.2118 0002514 15.2754 344.7916 15.25245466731570 ISS (ZARYA) 1 25544U 98067A 25160.86718932 .00008241 00000-0 15172-3 0 9992 2 25544 51.6386 343.3494 0001330 203.6332 254.6361 15.50093635514023 CXO 1 25867U 99040B 25161.50235525 .00000504 00000-0 00000-0 0 9991 2 25867 49.3467 130.0237 8431467 309.4256 0.0412 0.37803328 15918 ...Continue Reading

[TLELIST] Current TLEs

June 9th 2025 PDT

HST 1 20580U 90037B 25159.14722226 .00005081 00000-0 18828-3 0 9996 2 20580 28.4673 106.1852 0002429 355.4859 4.5713 15.25229293731300 ISS (ZARYA) 1 25544U 98067A 25160.34485962 .00008063 00000-0 14866-3 0 9990 2 25544 51.6394 345.9369 0001455 202.1962 219.3799 15.50083985513942 CXO 1 25867U 99040B 25161.50235525 .00000504 00000-0 00000-0 0 9991 2 25867 49.3467 130.0237 8431467 309.4256 0.0412 0.37803328 15918 ...Continue Reading

[TLELIST] Current TLEs

June 8th 2025 PDT

HST 1 20580U 90037B 25158.55832899 .00004494 00000-0 16561-3 0 9997 2 20580 28.4671 110.1765 0002416 348.6174 11.4365 15.25222559731214 ISS (ZARYA) 1 25544U 98067A 25159.37832093 .00008600 00000-0 15811-3 0 9990 2 25544 51.6400 350.7259 0001640 196.3412 228.1285 15.50069816513790 CXO 1 25867U 99040B 25161.50235525 .00000504 00000-0 00000-0 0 9991 2 25867 49.3467 130.0237 8431467 309.4256 0.0412 0.37803328 15918 ...Continue Reading
  • This mailing list is a public mailing list - anyone may join or leave, at any time.
  • This mailing list is announce-only.

International Space Station (ISS) / Hubble Space Telescope (HST) / Chandra X-Ray Observatory Orbital Data via EMAIL

Privacy Policy:

Private list